STARLINK-11505 [DTC] (62469 NORAD) Tracking and Keplerian Element Data

This shows tracking and keplerian element data for the satellite.

Feedback or suggestion? Click here.




ElementValue
Catalog62469
NameSTARLINK-11505 [DTC]
Epoch Orbit670
Epoch Day35.19219044
Epoch Year2025
RAAN106.2643
Inclination42.9986
Eccentricity0.000196
Argument of Perigee267.6766
Mean Anonmoly92.388
Mean Motion15.77855824
Decay Rate3.802E-05
L11 62469U 24254H 25035.19219044 .00003802 00000+0 24707-4 0 9995
L22 62469 42.9986 106.2643 0001960 267.6766 92.3880 15.77855824 6700



Live tracking and technical data element details for STARLINK-11505 [DTC] (NORAD 62469). STARLINK-11505 [DTC] can be tracked NOW for your location showing map with azimuth and elevation plus other details from your city location.







IsCatalogInMostPopularTable: catalog: 62469, numindb: 46
Update: records affected: 1



GetName: 62469 STARLINK-11505 [DTC]

Hit Count: updated at: Sun, 18 May 2025 23:07:24 GMT